Eindhoven, Netherlands

10:50 PM CET on November 17, 2017 (GMT +0100)
Eindhoven Air Base

Weather History for EHEH - June, 2014

Change the Weather History Date:

Friday, June 6, 2014

  Actual Average Record
Temperature  
Mean Temperature 60 °F -  
Max Temperature 77 °F 69 °F 80 °F (1997)
Min Temperature 44 °F 51 °F 39 °F (2006)
Degree Days  
Heating Degree Days 4    
Growing Degree Days 10 (Base 50)    
Moisture  
Dew Point 48 °F    
Average Humidity 61    
Maximum Humidity 100    
Minimum Humidity 26    
Precipitation  
Precipitation 0.00 in - - ()
Sea Level Pressure  
Sea Level Pressure 29.99 in    
Wind  
Wind Speed 4 mph ()    
Max Wind Speed 9 mph    
Max Gust Speed -    
Visibility 7.6 miles    
Events      
Averages and records for this station are not official NWS values.
T = Trace of Precipitation, MM = Missing Value Source: Averaged Metar Reports

Daily Weather History Graph

Daily Weather History Graph

Search for Another Location

Airport or City:

Trip Planner

Search our weather history database for the weather conditions in past years. The results will help you decide how hot, cold, wet, or windy it might be!

Date:

Astronomy

Jun. 06, 2014 Rise Set
Actual Time 5:23 AM CEST 9:50 PM CEST
Civil Twilight 4:37 AM CEST 10:36 PM CEST
Nautical Twilight 3:28 AM CEST 11:47 PM CEST
Astronomical Twilight 2:09 AM CEST 1:04 AM CEST
Moon 2:08 PM CEST (6/6) 1:57 AM CEST (6/6)
Length of Visible Light 17h 59m
Length of Day
16h 26m
First Quarter, 55% of the Moon is Illuminated
Jun 6
First Quarter
Jun 13
Full
Jun 19
Last Quarter
Jun 27
New
Jul 5
First Quarter

Hourly Weather History & Observations

Time (CEST) Temp. Windchill Dew Point Humidity Pressure Visibility Wind Dir Wind Speed Gust Speed Precip Events Conditions
12:00 AM 51 °F - 45 °F 72% 29.99 in 28 mi SW 2.2 mph - -  
12:25 AM 50.0 °F - 44.6 °F 82% 29.98 in 6.2 mi South 2.3 mph - N/A   Partly Cloudy
12:55 AM 48.2 °F - 44.6 °F 87% 29.98 in 6.2 mi South 3.5 mph - N/A   Unknown
1:00 AM 47 °F - 45 °F 91% 30.01 in 22 mi South 2.2 mph - -  
1:25 AM 46.4 °F - 46.4 °F 100% 30.01 in 6.2 mi South 2.3 mph - N/A   Unknown
1:55 AM 46.4 °F 45.2 °F 46.4 °F 100% 30.01 in 6.2 mi South 3.5 mph - N/A   Unknown
2:00 AM 46 °F - 46 °F 99% 30.01 in 19 mi SSE 4.5 mph - -   Partly Cloudy
2:25 AM 46.4 °F - 44.6 °F 93% 30.01 in 6.2 mi South 2.3 mph - N/A   Unknown
2:55 AM 46.4 °F - 46.4 °F 100% 30.01 in 6.2 mi South 2.3 mph - N/A   Unknown
3:00 AM 47 °F - 46 °F 96% 30.01 in 13 mi South 2.2 mph - -  
3:25 AM 46.4 °F 44.3 °F 46.4 °F 100% 30.01 in 6.2 mi SSE 4.6 mph - N/A   Unknown
3:55 AM 46.4 °F 45.2 °F 46.4 °F 100% 30.01 in 6.2 mi SSE 3.5 mph - N/A   Unknown
4:00 AM 46 °F - 46 °F 100% 30.02 in 9 mi SSE 2.2 mph - -   Scattered Clouds
4:25 AM 44.6 °F 43.1 °F 44.6 °F 100% 30.01 in 6.2 mi South 3.5 mph - N/A   Unknown
4:55 AM 46.4 °F 45.2 °F 46.4 °F 100% 30.01 in 6.2 mi SSE 3.5 mph - N/A   Unknown
5:00 AM 46 °F - 46 °F 98% 30.02 in 11 mi SSE 2.2 mph - -  
5:25 AM 46.4 °F 45.2 °F 46.4 °F 100% 30.01 in 6.2 mi South 3.5 mph - N/A   Unknown
5:55 AM 46.4 °F 45.2 °F 46.4 °F 100% 30.01 in 6.2 mi SSE 3.5 mph - N/A   Unknown
6:00 AM 46 °F - 46 °F 98% 30.02 in 9 mi SSE 2.2 mph - -   Scattered Clouds
6:25 AM 46.4 °F - 46.4 °F 100% 30.01 in 6.2 mi SE 2.3 mph - N/A   Unknown
6:34 AM 48.2 °F - 46.4 °F 93% 30.01 in 6.2 mi SE 3.5 mph - N/A   Unknown
6:51 AM 50.0 °F - 48.2 °F 94% 30.01 in 6.2 mi SE 2.3 mph - N/A   Unknown
6:55 AM 50.0 °F - 48.2 °F 94% 30.01 in 6.2 mi SE 2.3 mph - N/A   Unknown
7:00 AM 50 °F - 48 °F 91% 30.03 in 8 mi SE 2.2 mph - -  
7:25 AM 51.8 °F - 48.2 °F 88% 30.01 in 6.2 mi SE 3.5 mph - N/A   Unknown
7:55 AM 55.4 °F - 50.0 °F 82% 30.01 in 6.2 mi SSE 4.6 mph - N/A   Unknown
8:00 AM 56 °F - 49 °F 71% 30.03 in 19 mi SSE 4.5 mph - -   Partly Cloudy
8:25 AM 57.2 °F - 48.2 °F 72% 30.01 in 6.2 mi SSE 5.8 mph - N/A   Partly Cloudy
8:55 AM 60.8 °F - 50.0 °F 68% 30.04 in 6.2 mi SSE 5.8 mph - N/A   Unknown
9:00 AM 61 °F - 49 °F 55% 30.04 in 25 mi SSE 6.7 mph - -   Scattered Clouds
9:25 AM 62.6 °F - 48.2 °F 59% 30.04 in 6.2 mi SSE 5.8 mph - N/A   Partly Cloudy
9:55 AM 64.4 °F - 48.2 °F 56% 30.04 in 6.2 mi SSE 5.8 mph - N/A   Partly Cloudy
10:00 AM 65 °F - 50 °F 48% 30.04 in 19 mi South 6.7 mph - -   Partly Cloudy
10:25 AM 66.2 °F - 46.4 °F 49% 30.01 in 6.2 mi South 8.1 mph - N/A   Overcast
11:00 AM 67 °F - 47 °F 37% 30.03 in 19 mi SSE 6.7 mph - -   Mostly Cloudy
11:25 AM 68.0 °F - 44.6 °F 43% 30.01 in 6.2 mi SSE 6.9 mph - N/A   Mostly Cloudy
11:55 AM 69.8 °F - 46.4 °F 43% 30.01 in 6.2 mi SE 6.9 mph - N/A   Mostly Cloudy
12:00 PM 69 °F - 45 °F 30% 30.02 in 25 mi SSE 4.5 mph - -   Mostly Cloudy
12:25 PM 69.8 °F - 44.6 °F 40% 30.01 in 6.2 mi SSE 5.8 mph - N/A   Overcast
12:55 PM 69.8 °F - 44.6 °F 40% 30.01 in 6.2 mi South 4.6 mph - N/A   Partly Cloudy
1:00 PM 71 °F - 45 °F 28% 30.01 in 19 mi South 4.5 mph - -   Mostly Cloudy
1:25 PM 69.8 °F - 46.4 °F 43% 30.01 in 6.2 mi West 4.6 mph - N/A   Overcast
1:55 PM 71.6 °F - 48.2 °F 43% 29.98 in 6.2 mi SSE 5.8 mph - N/A   Overcast
2:00 PM 72 °F - 46 °F 28% 30.00 in 25 mi South 6.7 mph - -   Partly Cloudy
2:25 PM 73.4 °F - 50.0 °F 44% 29.98 in 6.2 mi ESE 4.6 mph - N/A   Overcast
2:55 PM 73.4 °F - 46.4 °F 38% 29.98 in 6.2 mi East 4.6 mph - N/A   Overcast
3:00 PM 73 °F - 47 °F 28% 29.99 in 22 mi SE 4.5 mph - -   Overcast
3:25 PM 73.4 °F - 46.4 °F 38% 29.98 in 6.2 mi SW 6.9 mph - N/A   Overcast
3:55 PM 75.2 °F - 44.6 °F 34% 29.98 in 6.2 mi SSE 4.6 mph - N/A   Overcast
4:00 PM 75 °F - 49 °F 29% 29.98 in 28 mi 2.2 mph - -   Overcast
4:25 PM 75.2 °F - 48.2 °F 38% 29.95 in 6.2 mi South 4.6 mph - N/A   Overcast
4:55 PM 75.2 °F - 46.4 °F 36% 29.95 in 6.2 mi SE 4.6 mph - N/A   Overcast
5:00 PM 75 °F - 47 °F 26% 29.97 in 22 mi SSE 4.5 mph - -   Scattered Clouds
5:25 PM 77.0 °F - 48.2 °F 36% 29.95 in 6.2 mi NNW 3.5 mph - N/A   Scattered Clouds
5:55 PM 77.0 °F - 46.4 °F 34% 29.95 in 6.2 mi SW 2.3 mph - N/A   Overcast
6:00 PM 77 °F - 50 °F 27% 29.96 in 25 mi 2.2 mph - -   Mostly Cloudy
6:25 PM 77.0 °F - 50.0 °F 39% 29.95 in 6.2 mi ENE 4.6 mph - N/A   Overcast
6:36 PM 75.2 °F - 48.2 °F 38% 29.95 in 6.2 mi ENE 4.6 mph - N/A   Scattered Clouds
6:55 PM 77.0 °F - 48.2 °F 36% 29.95 in 6.2 mi South 3.5 mph - N/A   Mostly Cloudy
7:00 PM 76 °F - 49 °F 28% 29.95 in 25 mi South 2.2 mph - -   Partly Cloudy
7:25 PM 75.2 °F - 50.0 °F 41% 29.95 in 6.2 mi ESE 3.5 mph - N/A   Overcast
7:29 PM 75.2 °F - 50.0 °F 41% 29.95 in 6.2 mi East 3.5 mph - N/A   Mostly Cloudy
7:55 PM 75.2 °F - 51.8 °F 44% 29.95 in 6.2 mi SE 4.6 mph - N/A   Overcast
8:00 PM 75 °F - 52 °F 34% 29.95 in 25 mi SE 2.2 mph - -   Partly Cloudy
8:25 PM 75.2 °F - 50.0 °F 41% 29.95 in 6.2 mi East 4.6 mph - N/A   Overcast
8:55 PM 73.4 °F - 51.8 °F 47% 29.92 in 6.2 mi ENE 6.9 mph - N/A   Overcast
9:00 PM 72 °F - 52 °F 38% 29.94 in 25 mi ENE 8.9 mph - -   Overcast
9:25 PM 71.6 °F - 51.8 °F 50% 29.95 in 6.2 mi ENE 9.2 mph - N/A   Overcast
9:55 PM 69.8 °F - 51.8 °F 53% 29.95 in 6.2 mi ENE 6.9 mph - N/A   Overcast
10:00 PM 69 °F - 52 °F 43% 29.96 in 28 mi ENE 6.7 mph - -   Overcast
10:25 PM 68.0 °F - 51.8 °F 56% 29.95 in 6.2 mi ENE 5.8 mph - N/A   Overcast
10:55 PM 68.0 °F - 51.8 °F 56% 29.95 in 6.2 mi ENE 8.1 mph - N/A   Overcast
11:00 PM 67 °F - 52 °F 47% 29.96 in 28 mi ENE 6.7 mph - -   Mostly Cloudy
11:25 PM 68.0 °F - 51.8 °F 56% 29.95 in 6.2 mi ENE 8.1 mph - N/A   Overcast
11:55 PM 66.2 °F - 50.0 °F 56% 29.95 in 6.2 mi ENE 9.2 mph - N/A   Overcast